Tracking 30986 objects as of 9-Jul-2025
HD Live streaming from Space Station
objects crossing your sky now

CZ-6A DEB

Track CZ-6A DEB now!
10-day predictions


NORAD ID: 54914
Int'l Code: 2022-151RB
Perigee: 831.1 km
Apogee: 888.9 km
Inclination: 98.8 °
Period: 102.0 minutes
Semi major axis: 7231 km
RCS: Unknown
Launch date: November 11, 2022
Source: People's Republic of China (PRC)
Launch site: Taiyaun Space Center, China (TSC)

Note: This is SATELLITE DEBRIS
Your satellite tracking list
Your tracking list is empty




NASA's NSSDC Master Catalog

Two Line Element Set (TLE):
1 54914U 22151RB  25190.26795188  .00000107  00000-0  81786-4 0  9999
2 54914  98.7924 190.4040 0039973 237.2211 122.5107 14.11897216136324
Source of the keplerian elements: AFSPC